Temp
77 83 83 79 63 60 56 65 79 78 76 79 85 85 80 82 78 66 85 87 84 79 78 80 80 80 80 80 79 79 78 79 79 79 79 79 79 79 79 79 79 79 80 80 80 80 80 80 80
76 83 81 73 57 50 57 74 71 77 80 84 87 86 82 78 89 87 85 86 84 80 77 77 79 80 80 79 79 78 78 78 79 79 79 79 78 78 78 78 79 80 80 80 80 80 80 80 80
81 83 69 64 56 53 61 72 77 82 85 85 83 89 85 80 88 87 89 87 84 80 79 78 79 79 80 79 79 78 78 78 79 79 79 79 78 78 78 78 79 80 81 81 81 80 79 79 79
81 76 71 57 56 66 70 73 79 82 83 88 86 82 87 90 88 91 94 88 84 81 81 79 78 79 79 79 79 79 78 78 79 79 79 78 78 78 78 78 79 79 80 81 80 79 79 79 78
77 70 57 53 59 70 78 79 79 77 79 81 83 81 80 88 92 91 93 93 85 83 81 78 78 79 79 79 79 79 78 78 78 79 78 78 78 77 77 78 78 79 80 80 79 79 78 78 77
67 68 54 50 60 71 78 81 82 81 79 81 81 82 79 87 90 88 92 88 90 85 79 78 78 78 79 79 79 78 78 78 78 78 78 78 77 77 77 78 78 79 79 79 79 78 77 77 77
64 59 54 58 62 68 75 81 81 82 81 81 82 77 78 85 88 89 88 89 88 86 80 77 77 78 78 78 78 78 77 77 77 77 77 77 77 77 77 77 78 78 78 78 78 77 77 77 76
69 63 57 62 61 63 76 75 77 76 82 92 90 77 72 80 89 90 87 86 84 83 80 77 75 75 75 76 78 77 77 77 77 77 77 77 77 77 77 76 77 78 77 77 77 77 77 76 76
72 59 56 59 63 67 77 73 79 84 78 82 88 87 88 90 88 86 87 88 83 83 79 78 76 75 74 74 77 77 78 77 77 77 77 75 72 73 75 75 77 77 77 77 77 77 76 76 76
65 56 59 68 71 70 75 76 76 76 76 75 80 87 91 88 84 81 82 82 86 81 80 80 79 76 76 82 74 73 76 75 74 74 74 72 71 71 76 76 78 77 77 77 77 76 76 76 70
66 60 67 71 75 77 75 76 81 75 68 75 76 81 87 86 82 80 82 81 81 85 84 82 80 79 79 81 74 74 72 71 71 73 72 71 73 72 74 71 73 70 76 73 74 73 72 71 70
60 70 72 74 77 76 74 77 76 76 74 81 82 84 83 81 79 79 80 81 81 81 83 83 82 81 83 78 76 76 75 74 72 72 72 71 69 71 72 71 71 70 70 70 69 69 70 71 73
63 67 74 76 74 72 76 74 73 75 81 81 84 83 82 79 79 80 83 81 81 79 78 79 81 82 83 78 78 77 77 77 75 75 74 73 70 70 72 72 72 72 72 70 69 70 72 73 74
67 68 68 70 69 70 70 70 72 77 79 80 80 79 78 79 79 77 78 79 79 79 78 79 79 82 83 80 79 78 77 75 77 77 77 74 74 73 73 73 74 74 73 74 73 73 73 74 74
68 60 65 67 68 66 71 65 68 76 79 76 78 77 77 78 80 77 77 76 77 77 77 74 76 78 81 80 78 79 78 77 79 78 78 78 76 75 74 74 74 73 74 73 73 73 72 71 72
59 57 49 62 69 71 66 57 70 74 74 73 76 77 77 75 77 77 77 73 73 74 75 75 82 76 77 78 76 78 79 77 78 77 79 79 78 76 75 74 75 74 74 74 72 72 71 69 70
53 46 51 59 70 69 66 61 71 75 74 70 71 74 78 75 73 73 73 72 71 72 74 74 74 74 76 76 74 75 77 77 78 77 76 79 79 77 76 75 73 74 74 72 71 71 70 70 69
48 50 56 56 64 67 62 63 68 71 70 68 69 70 72 74 73 73 70 72 70 70 70 71 70 70 72 74 75 73 74 75 76 77 75 76 79 80 76 74 74 73 72 72 70 72 70 71 70
60 58 55 60 67 62 60 59 64 68 66 65 65 67 68 71 74 73 72 70 68 67 68 68 70 68 69 71 71 74 73 73 73 75 76 76 76 77 77 74 72 72 71 71 71 71 70 69 71
60 55 52 59 65 63 58 57 63 65 65 65 66 66 66 66 70 73 68 68 67 66 66 67 68 69 68 68 71 73 77 75 75 75 75 76 75 75 75 74 73 73 72 71 70 70 67 68 72
57 54 53 54 61 62 57 54 57 65 66 69 70 72 69 66 66 67 69 66 66 66 66 66 66 67 69 69 67 65 69 71 72 70 74 75 76 75 75 74 75 74 72 72 71 71 71 67 68
50 62 62 59 51 40 56 40 53 58 62 66 69 71 72 67 68 68 70 66 66 65 66 66 66 66 68 69 66 67 67 68 72 72 71 74 75 75 75 75 75 75 75 75 73 72 71 68 66
56 64 59 57 48 45 48 40 51 56 56 62 67 69 71 72 66 68 63 66 66 66 65 65 65 65 65 66 66 63 62 66 67 69 71 72 73 74 75 75 75 75 76 76 71 69 69 70 66
67 59 56 50 45 38 47 45 47 52 56 59 64 70 70 66 66 66 66 66 66 67 67 65 64 64 64 64 65 63 63 65 66 66 67 67 70 72 73 76 75 76 75 74 73 71 71 72 74
61 51 37 32 32 35 50 47 49 54 62 65 63 65 65 66 65 66 64 63 63 64 65 63 64 63 63 64 64 64 63 66 66 65 65 67 66 68 70 72 73 75 76 75 72 71 72 73 73
53 47 37 29 26 35 47 37 45 59 65 66 71 66 69 65 62 64 65 65 63 64 64 64 64 62 63 63 64 64 66 64 64 67 67 67 65 67 70 71 73 73 74 74 73 73 73 69 67
51 46 48 39 40 30 36 45 55 58 59 60 65 67 61 62 62 64 63 64 64 65 66 64 63 63 64 65 64 64 65 64 64 67 67 66 68 71 71 71 70 71 72 71 72 74 73 70 70
54 55 39 36 28 25 33 40 41 49 53 56 57 60 63 62 61 63 64 64 65 65 64 65 65 65 65 65 64 64 63 65 65 66 65 67 67 68 69 70 69 68 69 72 70 71 71 70 71
48 39 40 37 32 28 26 32 52 48 51 51 53 55 57 58 62 63 64 65 65 65 64 64 63 63 63 64 64 63 64 65 64 64 64 65 65 67 67 68 68 69 69 68 71 71 72 71 71
51 42 37 31 29 34 31 31 55 51 52 53 53 56 58 59 59 58 60 68 66 64 65 64 63 65 65 64 64 63 62 62 63 62 63 64 65 66 67 68 69 70 71 69 68 72 75 72 72
MSLP
1009.50 1008.95 1008.74 1008.55 1009.41 1008.83 1008.07 1006.09 1004.52 1003.29 1001.94 1001.07 1000.21 1000.52 1002.13 1002.31 1003.27 1005.08 1005.14 1004.98 1005.73 1006.95 1007.68 1008.49 1008.75 1008.79 1009.06 1009.86 1010.61 1011.00 1011.22 1011.55 1011.78 1012.20 1012.65 1012.85 1013.19 1013.62 1013.86 1014.18 1014.55 1014.77 1015.05 1015.22 1015.34 1015.53 1015.71 1015.91 1015.98
1009.77 1009.19 1008.55 1008.70 1009.38 1009.16 1007.42 1004.94 1004.86 1003.33 1002.17 1000.91 1000.21 1000.56 1001.56 1003.07 1003.46 1004.42 1005.21 1005.55 1005.74 1006.70 1007.63 1008.24 1008.57 1008.77 1009.13 1009.77 1010.53 1011.13 1011.45 1011.77 1012.12 1012.52 1012.83 1013.05 1013.37 1013.75 1014.18 1014.25 1014.58 1014.90 1015.09 1015.39 1015.52 1015.65 1015.77 1015.99 1016.06
1009.85 1009.58 1009.95 1009.23 1009.13 1008.69 1006.61 1004.99 1004.21 1003.29 1002.05 1001.63 1001.27 1000.83 1001.71 1003.13 1003.55 1004.26 1004.89 1005.74 1006.19 1006.81 1007.37 1008.02 1008.37 1008.54 1008.90 1009.45 1010.23 1010.87 1011.33 1011.77 1012.25 1012.67 1013.10 1013.33 1013.55 1013.83 1014.32 1014.50 1014.57 1014.93 1015.31 1015.55 1015.72 1015.78 1015.87 1015.88 1016.12
1009.87 1009.61 1009.86 1009.39 1009.05 1007.64 1005.88 1005.11 1004.24 1003.62 1002.66 1002.14 1001.97 1002.03 1002.95 1003.08 1003.34 1003.78 1004.09 1005.35 1006.35 1006.96 1007.35 1007.80 1008.20 1008.63 1008.81 1009.33 1009.86 1010.81 1011.32 1011.75 1012.20 1012.63 1013.07 1013.42 1013.75 1014.07 1014.51 1014.71 1014.74 1015.03 1015.39 1015.76 1015.86 1015.93 1016.06 1015.93 1015.99
1009.75 1010.08 1010.16 1009.67 1008.90 1007.27 1005.36 1004.79 1004.08 1004.11 1003.36 1003.19 1003.38 1003.19 1003.39 1003.67 1003.49 1003.61 1003.71 1004.67 1005.70 1006.75 1007.21 1008.08 1008.44 1008.77 1009.09 1009.34 1009.57 1010.52 1011.43 1012.01 1012.39 1012.74 1013.11 1013.48 1013.74 1014.12 1014.40 1014.66 1014.85 1015.06 1015.42 1015.73 1015.93 1016.06 1016.11 1016.07 1015.96
1010.38 1010.19 1010.43 1009.85 1008.91 1007.13 1005.54 1004.49 1003.86 1003.83 1003.67 1003.44 1003.84 1004.11 1004.47 1003.75 1003.43 1003.75 1003.51 1003.85 1005.12 1006.03 1007.11 1007.57 1008.67 1009.23 1009.61 1009.53 1009.76 1010.26 1011.15 1011.80 1012.57 1012.95 1013.17 1013.55 1013.90 1014.22 1014.50 1014.76 1014.99 1015.13 1015.26 1015.54 1015.74 1015.92 1016.05 1016.02 1015.98
1010.45 1010.56 1010.31 1009.61 1008.97 1007.19 1005.41 1004.16 1003.78 1003.89 1003.83 1003.30 1003.79 1004.11 1004.99 1004.19 1003.89 1003.61 1003.55 1003.50 1004.76 1005.90 1006.83 1007.51 1008.29 1009.28 1009.79 1010.06 1010.15 1010.29 1010.97 1011.83 1012.11 1012.78 1013.36 1013.61 1013.96 1014.31 1014.47 1014.69 1015.12 1015.32 1015.40 1015.48 1015.70 1015.88 1015.97 1015.94 1015.91
1009.89 1010.33 1009.79 1009.19 1008.55 1006.99 1004.92 1004.43 1003.67 1003.65 1003.34 1003.01 1003.35 1003.75 1004.94 1004.75 1004.19 1003.95 1004.03 1003.62 1004.99 1006.38 1006.76 1007.53 1008.00 1009.09 1009.88 1010.41 1010.45 1010.60 1010.89 1011.46 1012.18 1012.61 1013.01 1013.62 1014.15 1014.35 1014.59 1014.82 1014.85 1015.16 1015.32 1015.41 1015.55 1015.65 1015.79 1015.87 1015.89
1009.40 1009.68 1009.22 1008.85 1008.14 1006.87 1004.84 1004.54 1004.15 1003.38 1003.47 1003.64 1003.62 1003.60 1003.71 1004.34 1004.50 1004.37 1004.62 1004.77 1005.71 1006.44 1006.90 1007.24 1008.03 1008.82 1009.77 1010.51 1010.85 1010.95 1011.28 1011.50 1011.83 1012.46 1012.90 1013.31 1013.97 1014.37 1014.59 1014.87 1014.98 1015.03 1015.09 1015.29 1015.35 1015.48 1015.66 1015.63 1015.57
1009.11 1008.89 1008.43 1008.09 1007.32 1006.37 1005.21 1004.34 1004.17 1004.25 1004.07 1004.29 1004.13 1003.78 1003.48 1004.31 1005.01 1005.16 1005.32 1005.95 1006.01 1006.75 1007.09 1006.73 1007.26 1008.41 1009.19 1010.09 1010.96 1011.19 1011.40 1011.87 1012.02 1012.17 1012.74 1013.13 1013.60 1013.99 1014.19 1014.39 1014.62 1014.70 1014.74 1014.98 1015.13 1015.03 1015.31 1015.29 1015.11
1008.68 1008.13 1008.15 1007.30 1006.49 1005.86 1005.19 1004.31 1003.87 1004.08 1004.47 1004.29 1004.13 1003.89 1003.63 1004.58 1004.99 1005.42 1005.52 1006.05 1006.25 1006.66 1006.92 1007.12 1006.85 1007.42 1008.41 1009.30 1010.52 1011.12 1011.43 1011.83 1012.11 1012.34 1012.46 1012.89 1013.13 1013.55 1013.84 1014.10 1014.29 1014.46 1014.41 1014.65 1014.63 1014.66 1014.76 1014.81 1014.67
1008.01 1007.59 1007.29 1006.71 1005.95 1005.36 1005.00 1004.48 1003.91 1003.63 1003.93 1003.87 1003.57 1003.45 1003.80 1004.31 1005.25 1005.46 1005.42 1005.89 1006.12 1006.19 1006.48 1007.12 1007.31 1007.13 1007.92 1008.47 1009.80 1010.38 1010.89 1011.39 1011.80 1012.17 1012.36 1012.68 1012.96 1013.04 1013.43 1013.84 1013.91 1014.07 1014.17 1014.41 1014.46 1014.31 1014.20 1014.33 1014.11
1007.66 1007.36 1006.59 1005.89 1005.48 1004.99 1004.55 1004.13 1004.06 1003.29 1003.21 1003.50 1003.97 1003.50 1003.46 1003.97 1004.94 1005.38 1005.54 1005.64 1005.94 1006.47 1007.08 1006.90 1007.52 1007.01 1007.40 1008.20 1009.09 1009.79 1010.23 1010.39 1010.98 1011.55 1012.04 1012.19 1012.55 1012.84 1012.85 1013.27 1013.52 1013.63 1013.77 1013.93 1013.99 1013.82 1013.88 1013.96 1014.22
1007.38 1006.83 1006.21 1005.62 1005.11 1004.75 1004.55 1004.47 1004.27 1003.20 1003.16 1003.13 1003.53 1003.72 1003.63 1003.85 1004.34 1005.21 1005.61 1005.84 1006.05 1006.31 1007.03 1007.37 1007.20 1007.42 1007.07 1007.45 1008.34 1009.27 1009.76 1010.09 1010.45 1010.74 1011.26 1011.70 1011.97 1012.29 1012.65 1012.89 1013.13 1013.08 1013.19 1013.28 1013.36 1013.25 1013.37 1013.29 1013.42
1007.45 1006.99 1006.07 1005.46 1005.03 1004.76 1004.68 1004.35 1003.86 1003.67 1003.61 1003.52 1003.31 1003.82 1003.73 1004.03 1004.16 1004.70 1005.06 1005.67 1005.74 1005.97 1006.43 1006.87 1007.57 1007.51 1007.15 1007.17 1007.45 1008.11 1008.42 1009.30 1010.26 1010.17 1010.45 1010.98 1011.33 1011.72 1011.88 1012.25 1012.45 1012.39 1012.57 1012.79 1012.97 1012.96 1012.83 1013.15 1013.30
1008.06 1007.50 1006.83 1005.70 1005.15 1004.55 1004.90 1003.84 1003.69 1003.62 1003.70 1003.50 1003.37 1003.41 1003.67 1003.99 1003.99 1004.29 1004.58 1005.12 1005.67 1005.74 1006.20 1006.85 1006.88 1007.58 1007.24 1007.17 1007.43 1007.74 1007.67 1008.05 1009.55 1010.01 1009.85 1010.25 1010.52 1010.94 1011.26 1011.75 1011.87 1011.73 1012.03 1012.29 1012.63 1012.86 1013.01 1013.14 1013.31
1008.22 1007.89 1006.99 1005.65 1004.65 1004.25 1004.11 1003.43 1003.13 1003.02 1003.27 1003.31 1003.41 1003.24 1003.31 1003.43 1003.67 1004.02 1004.42 1005.07 1005.54 1005.69 1006.13 1006.91 1007.33 1006.96 1007.01 1007.29 1007.45 1007.71 1007.64 1007.83 1008.39 1009.15 1009.11 1009.72 1010.06 1010.37 1010.76 1011.23 1011.51 1011.50 1011.97 1012.14 1012.49 1012.63 1012.91 1013.39 1013.55
1008.05 1007.33 1006.40 1005.59 1004.70 1004.17 1004.04 1003.42 1002.84 1002.83 1003.09 1003.19 1003.42 1003.19 1003.09 1003.13 1003.85 1004.41 1004.99 1004.94 1005.04 1005.58 1006.05 1006.61 1007.39 1007.49 1007.29 1006.73 1007.49 1008.34 1008.58 1008.39 1008.26 1008.50 1008.77 1009.05 1009.54 1009.80 1010.01 1010.70 1011.03 1011.20 1011.83 1011.81 1012.23 1012.48 1012.87 1013.24 1013.37
1007.18 1006.74 1006.14 1005.20 1004.79 1004.68 1004.24 1003.94 1003.34 1002.64 1002.66 1002.96 1003.25 1003.41 1002.94 1003.00 1003.09 1003.88 1004.79 1005.37 1005.75 1005.91 1006.39 1006.83 1007.11 1007.55 1007.81 1007.43 1007.25 1007.01 1008.23 1008.37 1008.39 1008.36 1008.39 1007.99 1009.34 1009.45 1009.99 1010.52 1010.92 1011.23 1011.43 1011.65 1012.02 1012.39 1012.71 1013.00 1012.99
1006.27 1006.20 1005.85 1005.43 1005.15 1004.94 1004.54 1004.16 1003.55 1003.13 1002.91 1002.72 1002.86 1003.11 1003.33 1002.90 1002.82 1003.41 1004.39 1005.34 1005.74 1006.23 1006.65 1007.01 1007.35 1007.61 1007.73 1007.86 1007.66 1007.10 1007.39 1008.45 1008.82 1009.18 1008.31 1007.75 1008.36 1008.51 1009.44 1009.91 1010.54 1010.89 1011.10 1011.21 1011.57 1011.97 1012.54 1012.36 1012.40
1005.69 1006.02 1005.90 1005.81 1005.40 1005.09 1005.04 1004.31 1004.11 1003.23 1002.83 1002.44 1002.26 1002.23 1002.46 1002.83 1002.95 1003.47 1004.17 1004.95 1005.72 1006.24 1006.56 1007.12 1007.60 1007.87 1008.06 1008.10 1008.23 1008.41 1008.47 1008.12 1009.19 1009.40 1008.89 1008.39 1007.74 1008.24 1008.69 1009.39 1010.29 1010.43 1010.45 1010.51 1011.10 1011.53 1012.00 1011.99 1012.09
1005.32 1005.64 1005.62 1005.82 1005.99 1006.31 1006.16 1005.15 1004.71 1004.01 1003.16 1002.61 1002.15 1001.79 1001.56 1001.91 1002.35 1003.06 1003.76 1004.39 1004.96 1005.72 1006.22 1006.93 1007.48 1007.83 1008.20 1008.33 1008.64 1008.81 1008.85 1008.00 1007.61 1008.20 1007.98 1007.34 1008.41 1008.51 1007.63 1008.55 1009.46 1010.00 1010.10 1009.86 1010.15 1010.68 1011.27 1011.37 1011.75
1004.63 1005.04 1005.62 1006.03 1006.47 1006.59 1006.93 1006.83 1003.85 1004.07 1003.01 1002.21 1001.49 1000.97 1000.68 1000.91 1001.63 1002.36 1003.52 1004.39 1005.29 1006.03 1006.61 1006.90 1007.21 1007.51 1007.62 1007.87 1008.24 1008.47 1008.59 1008.79 1007.10 1007.46 1007.43 1007.67 1007.51 1007.96 1008.19 1008.34 1008.71 1009.24 1009.73 1009.25 1009.47 1009.94 1010.58 1010.55 1010.43
1004.31 1004.82 1005.51 1006.31 1007.16 1007.02 1007.03 1006.84 1004.52 1003.61 1003.08 1002.30 1001.25 1000.31 999.68 1000.33 1001.19 1002.28 1003.21 1004.07 1004.91 1005.34 1005.83 1006.35 1006.97 1007.43 1007.50 1007.80 1008.05 1008.21 1008.14 1008.59 1008.03 1006.23 1006.92 1007.46 1008.48 1008.12 1007.37 1007.76 1008.30 1007.99 1008.77 1008.88 1009.06 1009.44 1009.45 1009.61 1009.05
1004.12 1005.18 1006.46 1007.10 1008.25 1007.00 1007.05 1006.22 1004.36 1003.17 1002.39 1001.88 1001.27 1000.61 999.25 999.91 1001.07 1002.11 1003.05 1003.96 1004.35 1004.99 1005.64 1006.25 1006.59 1007.06 1007.36 1007.84 1007.96 1008.05 1008.03 1007.96 1007.45 1007.16 1006.33 1007.00 1007.50 1007.57 1007.32 1007.00 1007.21 1007.51 1007.50 1008.18 1008.39 1008.99 1008.83 1008.99 1008.64
1004.83 1005.53 1007.15 1008.21 1008.76 1008.15 1007.74 1005.96 1004.06 1002.94 1002.44 1001.92 1000.93 1001.15 1000.88 1001.16 1001.41 1002.00 1002.69 1003.16 1003.76 1004.53 1005.17 1005.73 1006.11 1006.65 1006.94 1007.28 1007.56 1007.52 1007.39 1007.28 1007.09 1006.96 1006.86 1006.47 1006.85 1006.91 1007.19 1006.73 1006.86 1007.10 1007.08 1007.84 1007.88 1007.97 1007.97 1008.41 1008.06
1004.72 1006.08 1007.02 1008.70 1010.09 1009.95 1008.67 1006.18 1004.07 1003.15 1002.74 1002.06 1000.95 1001.25 1001.41 1001.39 1001.86 1002.29 1002.67 1003.03 1003.60 1004.22 1004.67 1005.06 1005.60 1005.93 1006.12 1006.31 1006.67 1006.93 1006.89 1006.90 1007.03 1006.70 1006.69 1006.63 1007.13 1006.33 1006.63 1006.85 1006.47 1006.70 1006.73 1007.39 1007.34 1007.03 1007.03 1007.53 1007.27
1005.17 1006.04 1007.73 1009.49 1010.74 1010.10 1008.27 1006.05 1004.25 1003.91 1003.58 1003.03 1002.45 1002.55 1002.05 1002.15 1002.14 1002.21 1002.75 1003.15 1003.26 1003.39 1003.69 1004.17 1004.49 1004.95 1005.18 1005.60 1005.88 1006.14 1006.17 1006.08 1006.05 1005.71 1005.92 1005.87 1005.72 1005.69 1005.69 1005.55 1005.83 1006.04 1006.43 1006.37 1006.47 1005.99 1006.04 1006.21 1006.27
1006.36 1007.71 1009.41 1011.27 1012.05 1010.71 1009.52 1007.30 1004.54 1004.32 1003.97 1003.51 1003.70 1003.70 1003.65 1003.97 1003.97 1002.74 1002.66 1002.69 1002.78 1002.96 1003.17 1003.55 1003.97 1004.33 1004.70 1005.04 1005.25 1005.47 1005.63 1005.72 1005.88 1006.02 1005.81 1005.98 1005.80 1005.85 1005.89 1006.13 1006.19 1005.94 1006.03 1005.87 1005.54 1005.44 1005.04 1004.94 1005.42
1006.99 1008.77 1010.51 1011.72 1011.96 1011.58 1010.34 1007.59 1005.94 1005.01 1004.93 1004.01 1003.51 1003.51 1003.37 1003.62 1003.86 1004.41 1003.89 1003.23 1002.34 1002.53 1002.90 1003.34 1003.40 1003.69 1003.99 1004.55 1004.98 1005.17 1005.42 1005.44 1005.76 1005.88 1005.93 1006.04 1006.05 1005.99 1005.86 1006.11 1006.03 1005.74 1005.45 1005.12 1004.82 1004.53 1004.29 1004.38 1004.33
Wind_Speed
9 11 5 3 3 2 6 10 7 15 1 3 5 10 17 13 10 7 4 16 22 16 14 12 16 19 20 18 14 14 15 15 16 16 14 15 15 14 14 13 12 12 11 10 10 9 9 8 7
6 8 3 1 3 1 8 12 3 7 4 7 7 6 16 11 12 7 8 15 19 18 13 11 16 19 20 19 16 13 14 15 15 14 14 14 14 14 12 13 11 11 11 9 9 9 9 7 6
7 5 2 2 3 6 8 4 11 9 9 9 8 5 7 7 9 5 10 15 17 15 14 12 16 19 21 21 18 16 15 15 15 14 13 13 14 13 11 11 12 10 9 9 8 8 8 8 5
4 4 4 1 9 14 15 8 11 6 8 10 8 5 7 5 5 7 7 19 15 14 13 17 17 17 20 20 20 16 15 15 15 15 14 13 13 12 11 9 10 9 8 7 7 7 6 7 5
1 2 2 4 9 12 18 8 5 7 8 7 11 15 8 4 8 9 8 11 18 16 13 14 15 16 18 20 21 18 15 13 14 14 14 13 13 12 12 10 9 9 8 7 6 5 5 5 4
3 1 4 5 9 14 13 8 9 15 8 11 9 12 4 4 10 4 7 3 15 19 14 16 15 13 14 18 20 20 17 16 14 13 12 12 11 11 10 10 9 9 9 8 7 5 4 4 3
6 3 7 9 14 17 15 10 15 17 16 22 2 5 2 9 8 8 5 4 17 17 16 13 15 12 12 13 17 20 19 16 16 14 12 11 11 10 10 10 8 7 8 7 6 6 6 5 5
4 3 10 12 12 15 16 2 5 2 16 16 2 6 3 3 8 10 7 4 18 13 14 14 14 12 7 6 14 17 19 19 16 15 14 12 10 9 9 9 9 8 8 8 8 8 8 7 7
6 8 12 12 15 15 18 8 5 5 3 0 6 11 7 9 9 10 11 15 13 12 12 14 13 11 9 7 8 12 16 18 18 15 15 12 5 6 7 7 9 10 9 9 9 9 9 9 9
7 7 12 9 12 14 17 14 5 2 5 5 6 7 4 11 9 9 10 9 12 9 11 14 15 14 12 9 7 5 9 6 7 9 10 7 7 6 8 9 11 12 11 11 10 11 11 11 5
11 15 11 11 14 18 18 16 10 6 8 9 12 11 11 8 9 7 7 5 7 4 9 11 15 17 15 10 8 5 4 4 4 7 8 7 6 5 5 3 4 5 9 4 6 6 5 7 7
10 14 16 18 20 19 15 9 12 10 7 12 15 12 9 7 7 6 2 5 7 8 4 8 11 15 14 8 8 8 7 6 5 6 8 6 4 5 5 4 6 5 4 6 6 4 6 9 9
10 12 17 17 13 11 11 14 11 18 12 2 11 14 15 7 8 7 6 3 6 8 8 6 8 13 12 10 8 7 8 9 9 8 8 6 5 5 5 5 5 5 4 5 6 6 6 8 7
7 9 9 9 10 8 6 6 7 15 9 11 8 12 9 9 8 8 7 7 6 5 6 5 3 9 11 12 12 7 5 5 8 9 10 9 7 6 5 5 6 6 5 6 7 7 7 8 6
13 10 10 9 8 8 6 11 16 12 9 10 14 6 8 10 10 10 11 10 9 6 4 7 6 2 8 8 9 7 7 6 7 9 12 13 9 8 7 5 6 6 5 7 6 6 4 4 1
8 8 6 7 9 12 6 19 17 10 9 11 13 8 7 12 12 9 8 10 8 8 7 5 6 2 4 5 5 4 5 7 6 5 9 14 13 10 7 5 6 5 4 4 4 4 4 2 2
6 8 11 16 15 16 13 24 19 13 13 10 9 11 13 8 9 6 10 11 9 8 8 5 2 5 8 5 4 3 4 4 5 5 6 12 11 8 6 6 5 6 5 4 3 3 3 1 1
9 7 10 10 7 10 8 18 10 7 5 8 9 8 8 7 5 8 4 9 10 9 8 7 4 3 2 6 5 3 2 3 4 5 5 8 9 12 8 5 6 5 4 5 3 4 2 2 3
11 14 10 8 13 12 12 9 9 8 5 7 7 8 7 8 7 10 12 9 8 8 8 4 4 2 2 2 3 5 2 1 3 3 8 8 7 9 9 4 4 4 5 5 4 2 3 1 1
11 12 8 10 12 13 11 11 10 8 7 7 7 8 10 7 8 7 12 8 8 9 8 6 3 1 2 2 4 1 6 2 3 5 5 6 8 8 9 7 6 6 5 5 5 4 2 3 4
7 9 7 10 15 12 9 13 10 9 7 7 10 15 9 12 11 10 15 12 9 9 9 7 6 4 2 3 2 3 1 2 4 4 5 7 6 8 9 8 9 9 7 6 5 6 7 4 3
6 10 12 14 7 4 5 14 12 7 12 14 15 19 19 11 10 11 15 13 12 8 7 8 7 5 4 4 3 5 4 4 5 4 3 2 7 9 8 11 10 10 8 9 7 6 5 5 6
9 9 10 5 6 8 7 6 14 9 11 16 16 16 17 20 10 14 10 10 9 9 8 6 5 4 4 3 4 3 4 5 4 3 3 5 4 5 8 11 13 12 9 10 7 7 8 8 5
16 9 8 4 2 12 14 10 18 16 11 8 10 21 13 13 12 14 13 11 9 8 6 6 8 4 2 3 5 6 6 7 6 3 3 2 4 5 5 7 9 11 10 9 8 8 10 12 11
15 8 7 6 5 17 13 14 14 7 13 6 10 10 8 13 13 15 13 10 9 9 8 7 8 7 6 5 6 7 8 8 6 5 3 4 4 3 6 7 8 9 11 11 10 12 10 13 12
8 5 5 8 6 11 12 8 6 6 14 9 9 5 7 6 9 11 11 11 10 10 11 10 10 8 8 8 8 7 8 4 4 5 4 3 4 4 5 5 7 11 10 11 12 10 11 11 8
6 9 6 3 4 5 6 10 14 7 8 16 14 9 4 6 8 9 7 8 8 9 12 12 10 10 9 8 7 7 6 5 5 7 6 4 6 4 6 7 6 6 8 11 12 11 14 10 11
4 3 5 5 4 7 9 16 7 7 5 10 7 8 4 4 5 5 7 7 7 8 9 12 11 12 9 9 7 6 6 6 6 5 5 5 5 3 5 6 6 5 7 8 10 12 11 12 12
9 2 4 4 5 6 4 7 2 6 6 5 4 4 7 15 14 2 5 7 8 7 8 11 10 10 8 9 7 6 5 5 4 4 4 5 4 5 4 5 7 8 10 9 9 11 14 14 12
4 6 5 1 2 2 4 8 8 10 9 5 7 4 5 7 9 11 12 14 8 8 7 7 8 8 8 8 7 6 4 3 3 3 4 5 6 6 6 6 8 9 11 9 9 12 11 13 14
Wind_Direction
324 320 293 333 44 105 253 257 252 298 173 316 49 72 80 58 78 121 149 118 123 133 142 152 152 142 137 135 139 138 132 129 127 128 129 125 122 119 120 120 119 120 118 117 113 107 97 91 87
323 324 328 316 114 322 264 250 357 337 350 5 41 32 79 75 86 72 79 131 136 139 143 147 152 145 138 137 138 139 136 134 133 133 134 131 128 126 130 128 125 124 124 122 117 111 110 102 97
290 190 5 168 216 221 251 277 2 338 355 9 9 44 88 120 68 93 103 134 136 141 147 152 152 149 144 144 143 145 144 141 139 138 138 136 134 134 135 131 129 130 127 124 122 122 124 119 106
309 343 319 153 261 269 263 331 306 337 335 13 358 32 80 74 99 121 88 144 142 148 151 152 151 155 150 149 144 148 147 144 144 142 143 141 139 135 133 136 132 131 129 131 132 132 133 124 118
286 297 258 268 265 268 278 260 316 1 340 353 2 335 94 53 86 120 111 133 149 156 146 148 150 155 156 151 145 143 143 141 143 144 145 146 142 142 142 142 142 136 134 141 146 145 140 137 131
305 131 256 266 271 270 274 271 292 283 325 318 0 16 31 56 42 43 124 148 147 154 148 147 146 151 160 150 146 139 141 141 142 143 144 143 141 144 143 145 147 146 150 156 160 168 178 167 171
206 274 256 258 259 273 274 293 207 213 260 272 235 357 329 32 12 4 140 160 118 145 144 148 141 148 152 156 149 142 141 143 143 141 141 141 142 148 152 150 153 160 159 166 174 185 204 206 220
230 225 262 265 269 274 279 271 153 161 222 264 332 239 160 5 12 11 27 146 122 141 139 143 139 138 132 150 154 148 146 145 143 142 143 142 147 156 159 162 165 172 175 185 189 201 209 219 234
253 240 248 247 257 274 287 294 241 208 109 294 266 252 122 70 20 27 25 9 111 136 148 146 141 140 139 135 159 147 148 148 146 147 147 144 148 162 175 177 187 190 189 197 200 211 217 220 228
220 240 236 241 261 266 276 287 296 131 193 252 270 293 301 84 44 35 36 11 38 155 165 156 151 150 149 158 146 142 151 153 152 150 155 157 165 178 184 192 203 198 196 203 208 215 218 223 221
234 239 250 257 251 254 264 280 286 208 204 198 216 217 249 120 94 40 34 38 344 112 163 178 159 154 161 159 156 162 153 155 162 162 162 171 176 182 197 187 193 201 204 209 207 223 214 219 222
240 247 238 244 256 266 267 275 293 296 208 214 209 208 238 211 127 109 13 3 18 359 148 167 172 160 167 141 161 170 166 172 175 177 171 173 183 187 190 180 191 194 194 211 219 220 218 231 237
258 256 252 258 245 257 266 273 269 279 295 316 239 201 201 216 171 140 192 119 46 18 31 88 185 169 167 143 158 171 182 175 173 175 179 175 184 198 183 183 182 198 192 204 222 224 221 234 233
254 266 266 272 268 262 258 284 302 278 299 309 290 221 188 209 202 159 166 194 133 95 87 357 108 196 167 140 144 150 175 181 176 174 182 182 186 195 205 181 189 205 196 206 220 216 220 228 205
321 321 309 287 284 282 306 292 265 278 260 274 281 200 194 200 211 206 190 192 162 156 130 102 10 194 168 170 157 157 155 160 187 184 181 187 187 197 191 197 206 197 205 194 226 245 238 256 195
305 307 295 275 275 264 198 262 255 258 242 245 264 264 226 216 208 207 202 156 171 134 118 124 143 318 212 161 147 161 165 134 161 175 185 189 191 191 187 191 211 214 221 221 223 216 249 242 171
270 250 255 274 241 239 211 243 244 231 241 250 247 250 257 280 203 193 148 143 148 137 125 113 238 171 191 185 143 166 173 165 165 183 155 189 191 180 183 197 206 204 208 226 235 258 222 359 327
258 262 262 255 286 331 284 253 228 202 231 252 260 242 225 170 156 140 149 158 146 137 119 106 77 316 308 165 142 127 273 283 202 190 163 166 193 202 185 197 205 182 213 219 207 220 87 133 224
255 268 282 319 325 326 302 299 301 258 238 279 286 279 201 195 197 152 163 154 126 116 114 109 101 13 326 318 172 140 223 222 314 251 204 159 179 190 200 211 205 199 198 216 194 157 132 210 223
281 294 304 316 308 295 301 295 283 253 229 230 264 262 252 235 190 159 143 141 147 145 139 129 129 182 329 325 332 90 179 204 242 252 244 186 181 175 183 190 209 202 217 216 206 154 188 185 182
274 298 272 257 271 276 299 291 299 277 285 274 255 258 236 215 200 158 151 156 147 146 151 155 165 159 193 287 349 341 341 102 165 244 233 213 182 195 189 191 215 215 201 202 194 170 181 181 210
288 274 288 290 331 267 6 298 286 294 296 288 273 256 249 206 198 168 160 159 156 165 149 145 146 158 198 208 218 227 250 187 198 228 248 201 198 205 180 199 207 218 218 214 195 182 192 163 196
236 261 281 278 310 320 304 287 282 280 274 271 278 258 231 229 164 184 133 120 116 119 138 152 175 180 224 250 234 219 261 292 171 180 200 237 253 251 208 205 211 216 222 219 178 173 198 204 173
285 249 256 272 240 267 265 235 268 267 265 301 298 294 214 139 126 113 122 123 130 149 161 155 144 170 259 233 241 245 245 259 288 156 142 105 271 229 218 223 218 208 213 215 208 212 197 204 198
253 273 280 280 273 260 254 250 246 303 281 322 299 329 116 132 131 133 138 150 165 163 173 171 174 200 195 223 250 243 233 238 252 279 189 195 242 252 259 202 218 228 222 218 202 213 208 214 209
300 235 182 258 225 278 318 265 259 293 310 279 240 291 122 110 136 147 163 176 165 169 182 182 183 190 196 210 227 235 244 229 217 236 269 248 228 231 261 259 219 228 228 224 222 212 212 218 217
259 287 253 266 312 251 230 262 276 277 331 344 198 206 169 149 146 155 162 149 170 186 195 183 175 186 198 208 214 221 221 224 236 230 215 200 234 216 236 233 221 231 218 229 222 216 214 211 225
204 284 356 8 285 245 226 239 245 296 23 4 355 348 356 145 155 132 138 168 192 191 186 180 183 187 192 205 214 215 226 250 261 275 278 287 294 287 287 299 278 251 251 257 223 226 216 209 229
323 348 80 141 180 295 288 260 20 40 16 346 335 10 12 7 343 244 199 227 218 204 181 185 186 184 192 200 206 219 230 236 246 250 250 262 286 293 284 275 277 271 253 243 243 233 223 208 223
322 74 69 209 292 259 291 275 283 354 260 277 281 294 9 4 359 302 343 283 203 179 173 174 195 196 184 172 181 190 212 273 273 284 282 267 252 246 240 247 262 271 279 260 233 247 232 211 220